Location: Igri�s
(42.2144°N, 0.4320°W)
Time: 16:33:43
(UTC+00:00)

Genesis I - Pass Details

Date: 13 August 2020
Orbit: 505 x 517 km, 64.5° (Epoch: 17 September)

Event Time Altitude Azimuth Distance (km) Brightness Sun altitude
Rises 20:55:16 0° 318° (NW) 2,623 8.4 -18.4°
Reaches altitude 10° 20:57:34 10° 309° (NW) 1,735 7.1 -18.7°
Maximum altitude 21:01:06 34° 243° (WSW) 852 4.4 -19.2°
Enters shadow 21:02:31 26° 201° (SSW) 1,046 4.5 -19.4°
